570  
ASUS41 KOKX 220409  
RWROKX  
 
REGIONAL WEATHER ROUNDUP  
NATIONAL WEATHER SERVICE NEW YORK NY  
1200 AM EDT SUN OCT 22 2017  
 
NOTE: "FAIR" INDICATES FEW OR NO CLOUDS BELOW 12,000 FEET WITH NO  
SIGNIFICANT WEATHER AND/OR S TO VISIBILITY
.  
 
NYZ071-072-176-178-NJZ106-104-220500-  
NEW YORK CITY METRO AREA  
 
CITY SKY/WX TMP DP RH WIND PRES REMARKS
 
CENTRAL PARK CLEAR 65 47 52 VRB3 30.38S  
BRONX BOT GARD N/A 66 45 45 SW5 30.38R  
LAGUARDIA APRT MOCLDY 66 46 48 SW6 30.35S  
KENNEDY INTL PTCLDY 57 51 80 SW7 30.37S  
BREEZY POINT N/A 63 N/A N/A SW3 N/A  
NEWARK/LIBERTY PTCLDY 57 46 66 SW6 30.36S  
TETERBORO CLEAR 55 48 77 CALM 30.35S  

 
 
NYZ177-179-078>081-220500-  
LONG ISLAND NEW YORK  
 
CITY SKY/WX TMP DP RH WIND PRES REMARKS
 
JONES BEACH N/A 63 N/A N/A SW3 N/A  
MATINECOCK PT N/A 64 N/A N/A SW6 N/A  
FARMINGDALE PTCLDY 55 51 86 CALM 30.36F  
MACARTHUR/ISP PTCLDY 56 55 97 CALM 30.35S  
SHIRLEY PTCLDY 56 54 93 CALM 30.36S FOG  
MT SINAI HARB N/A N/A N/A N/A S1 N/A  
WESTHAMPTON FOG 43 41 93 CALM 30.37S VSB 1/2  
EAST HAMPTON FAIR 46 46 97 CALM 30.35S  
MONTAUK N/A 61 56 83 VRB5 30.36F  

 
 
NYZ052-065-067-220500-  
HUDSON VALLEY  
 
CITY SKY/WX TMP DP RH WIND PRES REMARKS
 
WHITE PLAINS CLEAR 52 47 83 W5 30.35S  
LARCHMONT HARB N/A 57 N/A N/A MISG N/A  
CROTON ON HUDS N/A 54 N/A N/A MISG N/A  
NEWBURGH CLEAR 52 45 76 W5 30.36S  
MONTGOMERY CLEAR 46 43 89 CALM 30.35R  
POUGHKEEPSIE CLOUDY 47 44 90 CALM 30.34R  
ALBANY MOCLDY 48 45 89 CALM 30.34R  

 
 
NJZ001-105-106-008-010-013-015-019>022-104-220500-  
NEW JERSEY  
 
CITY SKY/WX TMP DP RH WIND PRES REMARKS
 
NEWARK/LIBERTY PTCLDY 57 46 66 SW6 30.36S  
TETERBORO CLEAR 55 48 77 CALM 30.35S  
CALDWELL CLEAR 50 48 93 CALM 30.37S  
SOMERVILLE CLEAR 46 45 96 CALM 30.35R  
LINDEN FAIR 58 45 62 CALM 30.36S  
PERTH AMBOY N/A 59 N/A N/A NW5 N/A  
SUSSEX CLEAR 45 44 97 CALM 30.37S  
ANDOVER N/A 46 45 96 CALM 30.37S  
TRENTON CLEAR 53 46 77 CALM 30.36S  
MILLVILLE MOCLDY 50 48 93 CALM 30.37S  
ATLANTIC CITY PTCLDY 51 49 92 CALM 30.37S  
WRIGHTSTOWN NOT AVBL  
TOMS RIVER N/A 47 44 90 CALM 30.37F  
BELMAR PTCLDY 56 51 84 SW6 30.37F  

 
 
PAZ047>061-062-071-220500-  
EASTERN PENNSYLVANIA  
 
CITY SKY/WX TMP DP RH WIND PRES REMARKS
 
PHILADELPHIA PTCLDY 59 48 67 S3 30.37S  
ALLENTOWN CLEAR 51 45 79 NW3 30.37R  
SCRANTON CLEAR 52 43 71 E5 30.36F  

 
 
CTZ002-004>006-009-010-012-RIZ004-006-007-MAZ004-011-015-220500-  
SOUTHERN NEW ENGLAND  
IN CT  
 
CITY SKY/WX TMP DP RH WIND PRES REMARKS
 
BRADLEY INTL MOCLDY 50 47 89 CALM 30.34S  
HARTFORD CLOUDY 51 50 96 CALM 30.34S  
DANBURY CLOUDY 47 44 90 CALM 30.37S  
WTRBURY/OXFORD CLOUDY 54 44 69 CALM 30.36S  
NORWALK HARBOR N/A 57 N/A N/A NW1 N/A  
BRIDGEPORT PTCLDY 55 48 77 CALM 30.35S  
MERIDEN PTCLDY 47 46 97 CALM 30.35S FOG  
NEW HAVEN PTCLDY 49 46 90 CALM 30.35S  
CHESTER FAIR 61 48 63 W7 30.35S  
GROTON PTCLDY 51 49 92 N3 30.34S  
WILIMANTIC CLOUDY 48 45 89 CALM 30.36S  
 
IN RI  
 
CITY SKY/WX TMP DP RH WIND PRES REMARKS
 
PROVIDENCE CLOUDY 55 50 83 CALM 30.34S  
BLOCK ISLAND CLEAR 60 55 83 W10 30.35F  
WESTERLY CLEAR 51 49 92 CALM 30.35S  
IN MA  
 
CITY SKY/WX TMP DP RH WIND PRES REMARKS
 
BOSTON CLOUDY 60 49 66 S5 30.32S  
WORCESTER CLOUDY 60 38 43 W9 30.35S  
WESTFIELD PTCLDY 46 45 96 CALM 30.34S  
PROVINCETOWN CLOUDY 59 55 87 S7 30.34S  
NANTUCKET CLOUDY 60 58 92 SW8 30.36S  

 
 
ANZ330-335-338-340-345-350-353-355-220500-  
COASTAL MARINE OBSERVATIONS  
 
 
STATION/POSITION TIME SKY/WX TEMP WIND PRES VSBY WAVE
 
AIR SEA DIR/SP/G HT/PER  
(UTC) (F) (DEG/KT/KT) (MB) (MI) (FT/S)  
NY HARB ENTRANCE 0250 65 65 230/ 12/ 14 1027.3 2/ 8  
20 S FIRE ISLAND 0250 64 64 230/ 8/ 10 1028.2 2/ 9  
GREAT SOUTH BAY 0330 61 62 290/ 2/ 4 N/A  
15 E BARNEGAT LI NOT AVBL  
HUDSON CANYON 0250 65 65 210/ 6/ 6 1027.8 2/ 9  
KINGS POINT 0348 63 65 190/ 6/ 6 1028.5  
EXECUTION ROCKS 0330 64 190/ 4/ 6 N/A  
WESTERN LI SOUND 0249 66 240/ 8/ 10 N/A 0  
CENTRAL LI SOUND NOT AVBL  
EASTERN LI SOUND NOT AVBL  
ROBBINS REEF 0348 64 260/ 6/ 8 1028.5  

 
 
>>>>>>>>>>>>>>>>>>>>>>>>>>>> KEY <<<<<<<<<<<<<<<<<<<<<<<<<<<  
> <  
> SKY/WX - SKY CONDITION/PRESENT WEATHER <  
> TMP - TEMPERATURE IN FAHRENHEIT <  
> DP - DEW POINT IN FAHRENHEIT <  
> RH - RELATIVE HUMIDITY IN PERCENT <  
> WIND - DIRECTION (FROM) AND SPEED IN MPH <  
> PRES - MEAN SEA LEVEL PRESSURE (INCHES OF HG) <  
> WCI - WIND CHILL INDEX <  
> VSB - VISIBILITY IN MILES <  
> HX - HEAT INDEX <  
> TC - TEMPERATURE IN CELSIUS <  
> VRB - VARIABLE WIND DIRECTION <  
> <  
>>>>>>>>>>>>>>>>>>>>>>>>>>>> KEY <<<<<<<<<<<<<<<<<<<<<<<<<<<  
 
 
CLICK HERE TO GO TO PREVIOUS BULLETINS.

The Nexlab NY Page
The Nexlab NJ Page
The Nexlab CT Page Main Text Page